User: anonymous   Login
Location: Fremont
(37.5480°N, 121.9880°W)
Time: 00:54:27
(UTC-07:00)
Language:

Cosmos 1766 - Orbit

View from above orbital plane
View from above orbital plane
View from above satellite
View from above satellite

Ground track
Ground track

The orbit data is extracted from the following two-line orbital elements,

1 16881U 86055A   16144.27831918  .00001432  00000-0  87431-4 0  9990
2 16881  82.4984  44.9139 0016393   9.6021 350.5518 15.09452577622609
Epoch (UTC): 23 May 2016 06:40:46
Eccentricity: 0.0016393
inclination: 82.4984°
perigee height: 526 km
apogee height: 549 km
right ascension of ascending node: 44.9139°
argument of perigee: 9.6021°
revolutions per day: 15.09452577
mean anomaly at epoch: 350.5518°
orbit number at epoch: 62260

The dashed part of the orbit path shows where the satellite is in the earth's shadow,  

DLR